Weather History for KCNB - September, 2012

Change the Weather History Date:

Tuesday, September 18, 2012

  Actual Average (KMML) Record (KMML)
Temperature  
Mean Temperature 48 °F -  
Max Temperature 61 °F 72 °F 93 °F (1984)
Min Temperature 36 °F 51 °F 33 °F (1971)
Degree Days  
Heating Degree Days 16    
Moisture  
Dew Point 35 °F    
Average Humidity 62    
Maximum Humidity 91    
Minimum Humidity 35    
Precipitation  
Precipitation 0.00 in - - ()
Sea Level Pressure  
Sea Level Pressure 30.00 in    
Wind  
Wind Speed 5 mph (SW)    
Max Wind Speed 9 mph    
Max Gust Speed -    
Visibility 10 miles    
Events      
Averages and records for this station are not official NWS values.
T = Trace of Precipitation, MM = Missing Value Source: NWS Daily Summary

Daily Weather History Graph

Daily Weather History Graph

Search for Another Location

Airport or City:

Trip Planner

Search our weather history database for the weather conditions in past years. The results will help you decide how hot, cold, wet, or windy it might be!

Date:

Astronomy

Sep. 18, 2012 Rise Set
Actual Time 7:08 AM CDT 7:29 PM CDT
Civil Twilight 6:38 AM CDT 7:58 PM CDT
Nautical Twilight 6:04 AM CDT 8:32 PM CDT
Astronomical Twilight 5:28 AM CDT 9:08 PM CDT
Moon 10:19 AM CDT (9/18) 8:41 PM CDT (9/18)
Length of Visible Light 13h 19m
Length of Day
12h 21m
Waxing Crescent, 9% of the Moon is Illuminated
Sep 18
Waxing Crescent
Sep 22
First Quarter
Sep 29
Full
Oct 8
Last Quarter
Oct 15
New

Hourly Weather History & Observations

Time (CDT) Temp. Windchill Dew Point Humidity Pressure Visibility Wind Dir Wind Speed Gust Speed Precip Events Conditions
12:14 AM 40.1 °F 36.1 °F 36.5 °F 87% 30.09 in 10.0 mi West 5.8 mph - N/A   Clear
12:34 AM 39.9 °F 36.7 °F 36.5 °F 88% 30.08 in 10.0 mi West 4.6 mph - N/A   Clear
12:54 AM 38.7 °F 35.2 °F 36.0 °F 90% 30.08 in 10.0 mi West 4.6 mph - N/A   Clear
1:14 AM 39.0 °F 34.8 °F 36.1 °F 89% 30.09 in 10.0 mi West 5.8 mph - N/A   Clear
1:34 AM 39.2 °F 34.2 °F 35.8 °F 88% 30.08 in 10.0 mi WNW 6.9 mph - N/A   Clear
1:54 AM 38.1 °F 33.7 °F 35.2 °F 89% 30.08 in 10.0 mi WNW 5.8 mph - N/A   Clear
2:15 AM 38.3 °F 33.9 °F 35.2 °F 89% 30.08 in 10.0 mi West 5.8 mph - N/A   Clear
2:34 AM 39.2 °F 35.0 °F 35.2 °F 86% 30.08 in 10.0 mi West 5.8 mph - N/A   Clear
3:14 AM 37.4 °F 32.1 °F 34.7 °F 90% 30.07 in 10.0 mi West 6.9 mph - N/A   Clear
3:34 AM 37.6 °F 34.0 °F 34.7 °F 89% 30.07 in 10.0 mi West 4.6 mph - N/A   Clear
3:54 AM 37.6 °F 34.0 °F 34.5 °F 89% 30.07 in 10.0 mi West 4.6 mph - N/A   Clear
4:15 AM 36.5 °F 31.8 °F 34.0 °F 91% 30.07 in 10.0 mi West 5.8 mph - N/A   Clear
4:34 AM 37.4 °F 32.8 °F 34.7 °F 90% 30.07 in 10.0 mi West 5.8 mph - N/A   Clear
4:54 AM 36.5 °F 32.7 °F 34.0 °F 91% 30.07 in 10.0 mi West 4.6 mph - N/A   Clear
5:15 AM 37.0 °F 33.3 °F 34.5 °F 91% 30.08 in 10.0 mi West 4.6 mph - N/A   Clear
5:34 AM 37.2 °F 34.7 °F 34.9 °F 91% 30.07 in 10.0 mi WSW 3.5 mph - N/A   Clear
5:54 AM 38.5 °F 36.1 °F 35.6 °F 89% 30.08 in 10.0 mi WSW 3.5 mph - N/A   Clear
6:14 AM 38.8 °F 35.4 °F 36.0 °F 89% 30.08 in 10.0 mi WSW 4.6 mph - N/A   Clear
6:34 AM 39.4 °F 37.2 °F 36.1 °F 88% 30.09 in 10.0 mi West 3.5 mph - N/A   Clear
6:54 AM 39.6 °F 36.3 °F 36.5 °F 89% 30.08 in 10.0 mi WSW 4.6 mph - N/A   Clear
7:14 AM 39.4 °F 37.2 °F 36.1 °F 88% 30.08 in 10.0 mi WSW 3.5 mph - N/A   Clear
7:35 AM 38.7 °F 36.3 °F 36.0 °F 90% 30.08 in 10.0 mi WSW 3.5 mph - N/A   Clear
7:54 AM 38.3 °F 34.8 °F 35.8 °F 91% 30.09 in 10.0 mi WSW 4.6 mph - N/A   Clear
8:14 AM 39.9 °F 37.8 °F 37.2 °F 90% 30.09 in 10.0 mi WSW 3.5 mph - N/A   Clear
8:35 AM 41.9 °F - 38.3 °F 87% 30.09 in 10.0 mi Calm Calm - N/A   Clear
8:54 AM 45.1 °F 42.8 °F 39.7 °F 81% 30.09 in 10.0 mi WSW 4.6 mph - N/A   Clear
9:14 AM 48.0 °F - 39.2 °F 72% 30.08 in 10.0 mi WSW 4.6 mph - N/A   Clear
9:34 AM 49.5 °F - 38.5 °F 66% 30.08 in 10.0 mi WSW 4.6 mph - N/A   Clear
9:54 AM 51.1 °F - 38.7 °F 63% 30.07 in 10.0 mi West 4.6 mph - N/A   Clear
10:14 AM 53.1 °F - 37.2 °F 55% 30.07 in 10.0 mi Calm Calm - N/A   Clear
10:34 AM 54.0 °F - 35.1 °F 49% 30.06 in 10.0 mi WSW 4.6 mph - N/A   Clear
10:54 AM 55.2 °F - 34.5 °F 46% 30.06 in 10.0 mi WSW 4.6 mph - N/A   Clear
11:14 AM 55.9 °F - 33.4 °F 43% 30.05 in 10.0 mi Calm Calm - N/A   Clear
11:34 AM 57.2 °F - 33.4 °F 41% 30.04 in 10.0 mi West 9.2 mph - N/A   Clear
11:54 AM 57.6 °F - 32.4 °F 39% 30.04 in 10.0 mi NW 5.8 mph - N/A   Scattered Clouds
12:14 PM 57.4 °F - 31.6 °F 38% 30.03 in 10.0 mi WSW 6.9 mph - N/A   Overcast
12:35 PM 57.4 °F - 32.5 °F 39% 30.03 in 10.0 mi Calm Calm - N/A   Scattered Clouds
12:54 PM 57.9 °F - 31.8 °F 37% 30.02 in 10.0 mi SW 4.6 mph - N/A   Scattered Clouds
1:14 PM 58.6 °F - 31.8 °F 36% 30.02 in 10.0 mi SSW 5.8 mph - N/A   Mostly Cloudy
1:34 PM 58.1 °F - 31.3 °F 36% 30.01 in 10.0 mi SW 4.6 mph - N/A   Overcast
2:14 PM 58.1 °F - 31.6 °F 37% 29.99 in 10.0 mi SSW 3.5 mph - N/A   Overcast
2:34 PM 58.3 °F - 32.5 °F 38% 29.99 in 10.0 mi SW 6.9 mph - N/A   Overcast
2:54 PM 59.2 °F - 31.6 °F 35% 29.98 in 10.0 mi SW 6.9 mph - N/A   Overcast
3:14 PM 59.4 °F - 31.3 °F 35% 29.98 in 10.0 mi SW 5.8 mph - N/A   Overcast
3:34 PM 59.5 °F - 31.8 °F 35% 29.97 in 10.0 mi SSW 4.6 mph - N/A   Overcast
3:54 PM 59.4 °F - 31.8 °F 35% 29.96 in 10.0 mi South 4.6 mph - N/A   Overcast
4:14 PM 59.5 °F - 32.0 °F 35% 29.95 in 10.0 mi South 5.8 mph - N/A   Overcast
4:34 PM 59.9 °F - 32.2 °F 35% 29.94 in 10.0 mi South 4.6 mph - N/A   Overcast
4:54 PM 60.4 °F - 32.7 °F 35% 29.93 in 10.0 mi SSE 5.8 mph - N/A   Overcast
5:15 PM 60.4 °F - 32.5 °F 35% 29.92 in 10.0 mi SSE 6.9 mph - N/A   Overcast
5:34 PM 60.6 °F - 32.7 °F 35% 29.92 in 10.0 mi South 8.1 mph - N/A   Overcast
5:54 PM 61.0 °F - 32.9 °F 35% 29.92 in 10.0 mi SSE 8.1 mph - N/A   Overcast
6:15 PM 61.0 °F - 34.2 °F 37% 29.91 in 10.0 mi SSE 4.6 mph - N/A   Overcast
6:34 PM 60.8 °F - 34.9 °F 38% 29.90 in 10.0 mi SSE 6.9 mph - N/A   Overcast
7:14 PM 59.2 °F - 34.7 °F 40% 29.88 in 10.0 mi SSE 8.1 mph - N/A   Mostly Cloudy
7:35 PM 57.7 °F - 35.8 °F 44% 29.87 in 10.0 mi SE 8.1 mph - N/A   Overcast
7:54 PM 56.5 °F - 36.5 °F 47% 29.86 in 10.0 mi SE 6.9 mph - N/A   Overcast
8:14 PM 54.3 °F - 36.7 °F 51% 29.86 in 10.0 mi SE 8.1 mph - N/A   Scattered Clouds
8:34 PM 52.7 °F - 37.0 °F 55% 29.85 in 10.0 mi SE 9.2 mph - N/A   Clear
8:54 PM 52.0 °F - 37.6 °F 58% 29.85 in 10.0 mi SE 8.1 mph - N/A   Clear
9:14 PM 50.2 °F - 37.8 °F 62% 29.84 in 10.0 mi SE 8.1 mph - N/A   Scattered Clouds
9:54 PM 50.7 °F - 38.3 °F 62% 29.83 in 10.0 mi SE 6.9 mph - N/A   Clear
10:14 PM 49.1 °F - 38.3 °F 66% 29.82 in 10.0 mi SE 8.1 mph - N/A   Clear
10:54 PM 47.5 °F - 38.5 °F 71% 29.80 in 10.0 mi SSE 5.8 mph - N/A   Clear
11:14 PM 53.4 °F - 35.8 °F 51% 29.80 in 10.0 mi SSE 6.9 mph - N/A   Clear
11:35 PM 54.5 °F - 35.2 °F 48% 29.79 in 10.0 mi SE 6.9 mph - N/A   Clear
11:55 PM 55.9 °F - 34.9 °F 45% 29.78 in 10.0 mi South 4.6 mph - N/A   Clear